Terminal Aerodrome Forecast
Issued by NWS

Home | Current Version | Previous Version | Text Only | Print | Product List | Glossary On
Versions: 1 2 3 4 5 6 7 8 9 10 11 12 13 14 15 16 17 18 19 20 21 22 23 24 25 26 27 28 29 30 31 32 33 34
000
FTUS43 KDLH 210804 AAD
TAFHYR
TAF AMD
KHYR 210804Z 2108/2206 25008G15KT P6SM OVC006
     FM210900 26005KT P6SM OVC010
     FM211300 25003KT 3/4SM BR SCT002 OVC004
     FM211500 21005KT 2SM BR SCT004 OVC007
     FM211700 20008KT P6SM FEW200=

USA.gov is the U.S. government's official web portal to all federal, state and local government web resources and services.